COSMOS 2114

Satellite information

Favourite Embed

Satellite Type and Status

PAYLOADIN ORBIT

Key statistics

Satellite COSMOS 2114 at a glance.

Uptime

12729

Days in orbit

Revolutions

≈ 12.6

Per day

Orbit

LEO

Low Earth Orbit

Inclination

82.6

Latest

Satellite identification and parameters

Extended collection of information and parameters for COSMOS 2114.

Object identification

Identified? True

Debris? False

Object name: COSMOS 2114

International designator: 1990-114A

Object number (NORAD): 21028

Object ID (CCSDS): 21028

Country: COMMONWEALTH OF INDEPENDENT STATES (CIS)

Current information (Y/N): Y

RCS size: LARGE

Orbital parameters

Period: 114.033 minutes

Inclination: 82.5824 deg

SMA: 7789.562 km

Apoapsis: 1416.297 km

Periapsis: 1406.557 km

RAAN: 22.0369 deg

Eccentricy: 0.00062516

Argument of periapsis: 100.7361 deg

Mean anomaly: 72.4578 deg

Mean motion: 12.62796032 rev/day

Mean motion (dot): 0.00000034 rev/day2

B* drag term: 0.00012932518 1/REarth

Two-line elements (TLE)

Creation date: Oct. 28, 2025, 2:18 a.m.

Reference frame: TEME

Reference center: EARTH

Epoch: Oct. 27, 2025, 11:47 p.m. UTC

TLE line 0: 0 COSMOS 2114

TLE line 1: 1 21028U 90114A 25300.99155586 .00000034 00000-0 12933-3 0 9994

TLE line 2: 2 21028 82.5824 22.0369 0006252 100.7361 72.4578 12.62796032606080

Live tracking on map

Real-time ground track for satellite COSMOS 2114.

In-orbit conjunctions

There are no conjunctions computed for COSMOS 2114, at the moment. Check back to stay up to date, as we update our databases every day.

Go to all conjunctions

Associated space launch

Second generation store-dump military communications satellite

COSMOS 2114 was lifted into orbit during the mission ‘Tsiklon-3 | Strela-3 55 to 60’, on board a Tsiklon-3 space rocket.

The launch took place on Dec. 22, 1990, 7:28 a.m. from 32/2.

For more information about the launch, click the button.

Launch to space Tsiklon-3 | Strela-3 55 to 60
Tsiklon-3 | Strela-3 55 to 60

Agency: N/A

Status: Launch Successful

Launch date: Dec. 22, 1990, 7:28 a.m. UTC

Rocket: Tsiklon-3

Launch pad: 32/2

Location: Plesetsk Cosmodrome, Russian Federation

...

Latest news about this satellite

There are no fresh news available about this satellite. Check back as we update our databases every day.


Newsletter sign-up

Weekly statistics, charts and insights to help you stay on top of the space industry.